Weather History for KDVL - January, 2014

Change the Weather History Date:

Monday, January 20, 2014

  Actual Average (WUND) Record (WUND)
Temperature  
Mean Temperature -2 °F -  
Max Temperature 10 °F - - (-1)
Min Temperature -14 °F - - (-1)
Degree Days  
Heating Degree Days 67    
Moisture  
Dew Point -17 °F    
Average Humidity 59    
Maximum Humidity 72    
Minimum Humidity 49    
Precipitation  
Precipitation 0.00 in - - ()
Sea Level Pressure  
Sea Level Pressure 30.23 in    
Wind  
Wind Speed 15 mph (North)    
Max Wind Speed 26 mph    
Max Gust Speed 32 mph    
Visibility 6 miles    
Events      
Averages and records for this station are not official NWS values.
T = Trace of Precipitation, MM = Missing Value Source: NWS Daily Summary

Daily Weather History Graph

Daily Weather History Graph

Search for Another Location

Airport or City:

Trip Planner

Search our weather history database for the weather conditions in past years. The results will help you decide how hot, cold, wet, or windy it might be!

Date:

Astronomy

Jan. 20, 2014 Rise Set
Actual Time 8:16 AM CST 5:16 PM CST
Civil Twilight 7:42 AM CST 5:51 PM CST
Nautical Twilight 7:04 AM CST 6:29 PM CST
Astronomical Twilight 6:27 AM CST 7:06 PM CST
Moon 10:18 PM CST (1/20) 9:54 AM CST (1/20)
Length of Visible Light 10h 09m
Length of Day
9h 00m
Waning Gibbous, 82% of the Moon is Illuminated
Jan 20
Waning Gibbous
Jan 23
Last Quarter
Jan 30
New
Feb 6
First Quarter
Feb 14
Full

Hourly Weather History & Observations

Time (CST) Temp. Windchill Dew Point Humidity Pressure Visibility Wind Dir Wind Speed Gust Speed Precip Events Conditions
12:15 AM 10.4 °F -6.0 °F 1.4 °F 67% 29.78 in 2.0 mi NE 15.0 mph - N/A   Overcast
12:35 AM 8.6 °F -6.3 °F -0.4 °F 67% 29.78 in 2.0 mi ENE 11.5 mph 18.4 mph N/A   Overcast
12:55 AM 6.8 °F -6.9 °F -0.4 °F 72% 29.78 in 3.0 mi ENE 9.2 mph - N/A   Overcast
1:15 AM 6.8 °F -10.7 °F -0.4 °F 72% 29.79 in 4.0 mi NE 15.0 mph - N/A   Overcast
1:35 AM 6.8 °F -11.8 °F -2.2 °F 67% 29.79 in 2.0 mi ENE 17.3 mph - N/A   Overcast
1:55 AM 5.0 °F -13.6 °F -4.0 °F 66% 29.80 in 2.5 mi ENE 16.1 mph - N/A   Overcast
2:15 AM 3.2 °F -13.1 °F -5.8 °F 66% 29.82 in 4.0 mi ENE 11.5 mph - N/A   Overcast
2:35 AM 3.2 °F -15.3 °F -5.8 °F 66% 29.83 in 6.0 mi ENE 15.0 mph - N/A   Overcast
2:55 AM 3.2 °F -15.9 °F -7.6 °F 61% 29.85 in 10.0 mi ENE 16.1 mph - N/A   Overcast
3:15 AM 3.2 °F -15.3 °F -7.6 °F 61% 29.85 in 9.0 mi ENE 15.0 mph - N/A   Overcast
3:35 AM 1.4 °F -18.8 °F -7.6 °F 66% 29.87 in 9.0 mi NE 17.3 mph - N/A   Overcast
3:55 AM 1.4 °F -18.8 °F -7.6 °F 66% 29.88 in 5.0 mi NE 17.3 mph - N/A   Overcast
4:15 AM 1.4 °F -18.8 °F -7.6 °F 66% 29.89 in 3.0 mi NE 17.3 mph 21.9 mph N/A   Overcast
4:35 AM -0.4 °F -21.2 °F -9.4 °F 66% 29.92 in 1.5 mi NE 17.3 mph 23.0 mph N/A   Overcast
4:55 AM -0.4 °F -22.3 °F -9.4 °F 66% 29.92 in 2.0 mi NE 19.6 mph 24.2 mph N/A   Overcast
5:15 AM -0.4 °F -22.8 °F -9.4 °F 66% 29.94 in 2.0 mi NE 20.7 mph 24.2 mph N/A   Overcast
5:35 AM -0.4 °F -21.7 °F -11.2 °F 60% 29.96 in 2.5 mi NE 18.4 mph 28.8 mph N/A   Overcast
5:55 AM -2.2 °F -22.9 °F -11.2 °F 66% 29.98 in 3.0 mi NE 16.1 mph 23.0 mph N/A   Overcast
6:15 AM -2.2 °F -24.7 °F -13.0 °F 60% 29.99 in 3.0 mi NE 19.6 mph 24.2 mph N/A   Overcast
6:35 AM -2.2 °F -26.2 °F -14.8 °F 55% 30.01 in 2.0 mi NE 23.0 mph - N/A   Overcast
6:55 AM -2.2 °F -25.2 °F -13.0 °F 60% 30.03 in 1.8 mi NE 20.7 mph 26.5 mph N/A   Overcast
7:15 AM -4.0 °F -28.6 °F -14.8 °F 60% 30.04 in 1.2 mi NE 23.0 mph - N/A   Overcast
7:35 AM -4.0 °F -28.1 °F -13.0 °F 65% 30.06 in 2.0 mi NE 21.9 mph 25.3 mph N/A   Overcast
7:55 AM -4.0 °F -28.1 °F -14.8 °F 60% 30.09 in 2.0 mi NNE 21.9 mph 27.6 mph N/A   Overcast
8:15 AM -5.8 °F -30.5 °F -16.6 °F 60% 30.11 in 0.8 mi NNE 21.9 mph 31.1 mph N/A   Overcast
8:35 AM -5.8 °F -29.4 °F -14.8 °F 65% 30.13 in 0.8 mi NNE 19.6 mph - N/A   Overcast
8:55 AM -5.8 °F -29.9 °F -16.6 °F 60% 30.17 in 0.8 mi NNE 20.7 mph - N/A   Overcast
9:15 AM -5.8 °F -29.9 °F -16.6 °F 60% 30.19 in 1.0 mi NNE 20.7 mph - N/A   Overcast
9:35 AM -5.8 °F -28.8 °F -16.6 °F 60% 30.22 in 1.0 mi NNE 18.4 mph - N/A   Overcast
9:55 AM -5.8 °F -30.5 °F -16.6 °F 60% 30.24 in 2.0 mi North 21.9 mph - N/A   Overcast
10:15 AM -5.8 °F -32.4 °F -16.6 °F 60% 30.27 in 0.5 mi North 26.5 mph 32.2 mph N/A   Overcast
10:35 AM -5.8 °F -31.5 °F -18.4 °F 55% 30.29 in 0.5 mi North 24.2 mph - N/A   Overcast
10:55 AM -5.8 °F -32.4 °F -16.6 °F 60% 30.30 in 0.2 mi North 26.5 mph - N/A   Overcast
11:15 AM -5.8 °F -32.0 °F -18.4 °F 55% 30.32 in 0.8 mi North 25.3 mph - N/A   Overcast
11:35 AM -7.6 °F -33.4 °F -20.2 °F 54% 30.34 in 0.5 mi North 23.0 mph - N/A   Overcast
11:55 AM -7.6 °F -34.4 °F -20.2 °F 54% 30.36 in 0.8 mi North 25.3 mph - N/A   Overcast
12:15 PM -7.6 °F -34.8 °F -20.2 °F 54% 30.36 in 0.5 mi North 26.5 mph - N/A   Overcast
12:35 PM -9.4 °F -36.8 °F -20.2 °F 59% 30.37 in 1.2 mi North 25.3 mph - N/A   Clear
12:55 PM -7.6 °F -32.9 °F -20.2 °F 54% 30.39 in 1.5 mi North 21.9 mph 27.6 mph N/A   Scattered Clouds
1:15 PM -7.6 °F -33.4 °F -22.0 °F 50% 30.40 in 2.5 mi North 23.0 mph - N/A   Scattered Clouds
1:35 PM -9.4 °F -34.7 °F -22.0 °F 54% 30.41 in 2.5 mi North 20.7 mph - N/A   Partly Cloudy
1:55 PM -7.6 °F -31.7 °F -20.2 °F 54% 30.42 in 3.0 mi North 19.6 mph - N/A   Partly Cloudy
2:15 PM -9.4 °F -33.5 °F -22.0 °F 54% 30.42 in 5.0 mi North 18.4 mph - N/A   Partly Cloudy
2:35 PM -7.6 °F -29.8 °F -20.2 °F 54% 30.42 in 10.0 mi North 16.1 mph - N/A   Clear
2:55 PM -7.6 °F -29.8 °F -22.0 °F 50% 30.42 in 10.0 mi NNW 16.1 mph - N/A   Clear
3:15 PM -7.6 °F -29.1 °F -22.0 °F 50% 30.42 in 10.0 mi NNW 15.0 mph - N/A   Clear
3:35 PM -9.4 °F -30.6 °F -23.8 °F 49% 30.43 in 10.0 mi North 13.8 mph - N/A   Clear
3:55 PM -9.4 °F -30.6 °F -22.0 °F 54% 30.44 in 10.0 mi NNW 13.8 mph - N/A   Clear
4:15 PM -7.6 °F -28.3 °F -22.0 °F 50% 30.45 in 10.0 mi NNW 13.8 mph - N/A   Clear
4:35 PM -9.4 °F -30.6 °F -22.0 °F 54% 30.46 in 10.0 mi NNW 13.8 mph - N/A   Clear
4:55 PM -9.4 °F -26.8 °F -22.0 °F 54% 30.47 in 10.0 mi NNW 9.2 mph - N/A   Clear
5:15 PM -9.4 °F -25.6 °F -22.0 °F 54% 30.47 in 10.0 mi NNW 8.1 mph - N/A   Clear
5:35 PM -9.4 °F -25.6 °F -23.8 °F 49% 30.49 in 10.0 mi NNW 8.1 mph - N/A   Clear
5:55 PM -11.2 °F -27.8 °F -23.8 °F 54% 30.49 in 10.0 mi NNW 8.1 mph - N/A   Clear
6:15 PM -11.2 °F -24.8 °F -23.8 °F 54% 30.49 in 10.0 mi NW 5.8 mph - N/A   Clear
6:35 PM -11.2 °F -24.8 °F -22.0 °F 59% 30.48 in 10.0 mi WNW 5.8 mph - N/A   Clear
6:55 PM -11.2 °F -24.8 °F -22.0 °F 59% 30.48 in 10.0 mi NW 5.8 mph - N/A   Clear
7:15 PM -13.0 °F -25.1 °F -25.6 °F 53% 30.48 in 10.0 mi NW 4.6 mph - N/A   Clear
7:35 PM -11.2 °F -23.0 °F -23.8 °F 54% 30.47 in 10.0 mi WNW 4.6 mph - N/A   Clear
7:55 PM -11.2 °F -24.8 °F -23.8 °F 54% 30.47 in 10.0 mi WNW 5.8 mph - N/A   Clear
8:15 PM -13.0 °F -22.7 °F -25.6 °F 53% 30.47 in 10.0 mi NW 3.5 mph - N/A   Clear
8:35 PM -14.8 °F - -27.4 °F 53% 30.47 in 10.0 mi Calm Calm - N/A   Clear
8:55 PM -11.2 °F - -20.2 °F 64% 30.47 in 10.0 mi Calm Calm - N/A   Clear
9:15 PM -11.2 °F - -23.8 °F 54% 30.47 in 10.0 mi Calm Calm - N/A   Clear
9:35 PM -14.8 °F - -27.4 °F 53% 30.46 in 10.0 mi Calm Calm - N/A   Clear
9:55 PM -11.2 °F -26.4 °F -22.0 °F 59% 30.45 in 10.0 mi WSW 6.9 mph - N/A   Clear
10:15 PM -13.0 °F -28.6 °F -23.8 °F 59% 30.44 in 10.0 mi WSW 6.9 mph - N/A   Clear
10:35 PM -11.2 °F -24.8 °F -22.0 °F 59% 30.44 in 10.0 mi SW 5.8 mph - N/A   Clear
10:55 PM -11.2 °F -23.0 °F -23.8 °F 54% 30.42 in 10.0 mi SW 4.6 mph - N/A   Clear
11:15 PM -13.0 °F -28.6 °F -23.8 °F 59% 30.42 in 10.0 mi SW 6.9 mph - N/A   Clear
11:35 PM -11.2 °F -27.8 °F -23.8 °F 54% 30.41 in 10.0 mi SW 8.1 mph - N/A   Clear
11:55 PM -13.0 °F -28.6 °F -23.8 °F 59% 30.40 in 10.0 mi WSW 6.9 mph - N/A   Clear